Regional Weather Roundup
Issued by NWS

Home | Current Version | Previous Version | Graphics & Text | Print | Product List | Glossary On
Versions: 1 2 3 4 5 6 7 8 9 10 11 12 13 14 15 16 17 18 19 20 21 22 23 24 25 26 27 28 29 30 31 32 33 34 35 36 37 38 39 40 41 42 43 44 45 46 47 48 49 50
339
ASUS43 KLOT 100012
RWRIL

ILLINOIS REGIONAL WEATHER ROUNDUP
NATIONAL WEATHER SERVICE CHICAGO/ROMEOVILLE IL
600 PM CST FRI DEC 09 2016

NOTE: "FAIR" INDICATES FEW OR NO CLOUDS BELOW 12,000 FEET WITH NO
SIGNIFICANT WEATHER AND/OR OBSTRUCTIONS TO VISIBILITY.

* THESE STATIONS ARE NOT UNDER NWS QUALITY CONTROL. THEY ALSO MAY NOT
  REPORT WEATHER SUCH AS PRECIPITATION OR FOG.

ILZ001-002-007-009-015-016-024-100100-
NORTHWEST ILLINOIS

CITY           SKY/WX    TMP DP  RH WIND       PRES   REMARKS
MOLINE         CLEAR     20  11  68 NW6       30.55F WCI  12
6HR MIN TEMP:  19; 6HR MAX TEMP:  25; 6HR PCP: TRACE;

STERLING*      CLEAR     17  12  80 W7        30.54S WCI   8
SAVANNA*       CLEAR     21  12  69 W6        30.54S WCI  13
$$

ILZ003-004-008-010-011-017-018-100100-
NORTH CENTRAL ILLINOIS

CITY           SKY/WX    TMP DP  RH WIND       PRES   REMARKS
ROCKFORD       PTCLDY    20  11  68 W3        30.53S
6HR MIN TEMP:  19; 6HR MAX TEMP:  25; 6HR PCP: TRACE;

FREEPORT*      CLEAR     14  10  85 SW5       30.53S WCI   6
ROCHELLE*      CLEAR     15  11  85 W7        30.53R WCI   5
DE KALB*       CLEAR     17  11  79 W6        30.51S WCI   8
$$

ILZ005-006-012>014-019>023-100100-
NORTHEAST ILLINOIS

CITY           SKY/WX    TMP DP  RH WIND       PRES   REMARKS
CHICAGO-OHARE  MOCLDY    21  12  68 W10       30.51R WCI  10
6HR MIN TEMP:  21; 6HR MAX TEMP:  25; 6HR PCP: TRACE;

CHICAGO-MIDWAY MOCLDY    23  11  60 W9        30.52R WCI  13
6HR MIN TEMP:  22; 6HR MAX TEMP:  26; 6HR PCP: TRACE;

AURORA         CLEAR     14   9  80 W6        30.53S WCI   5
6HR MIN TEMP:  14; 6HR MAX TEMP:  25;

LANSING*       CLEAR     20  15  78 W5        30.53S WCI  14
JOLIET*        CLEAR     22  14  73 W3        30.54S
WAUKEGAN       CLEAR     21  11  65 VRB3      30.49R
6HR MIN TEMP:  21; 6HR MAX TEMP:  27;

DUPAGE AIRPORT CLEAR     20  11  68 W8        30.51R WCI  10
6HR MIN TEMP:  19; 6HR MAX TEMP:  24;

KANKAKEE*      CLOUDY    24  13  63 W8        30.55S WCI  15
WHEELING       CLEAR     22  12  65 W7        30.52S WCI  13
6HR MIN TEMP:  22; 6HR MAX TEMP:  26;

MORRIS*        CLEAR     17  13  82 CALM      30.53S
ROMEOVILLE*    CLEAR     18  15  86 W6        30.53S WCI  10
NORTHERLY ISL    N/A     24  13  62 W8          N/A  WCI  15
$$

LMZ740>746-100100-
SOUTHERN LAKE MICHIGAN

STATION/POSITION SKY/WX   TEMP    WIND        PRES    VSBY  WAVE
                          AIR SEA DIR/SP/G                  HT/PER
                          (F)     (DEG/KT/KT) (MB)    (MI)  (FT/S)
HARRISON CRIB              25     260/ 15/ 16   N/A
BURNHAM HARBOR             23     260/  7/ 11   N/A
CALUMET HARBOR             22     230/  5/  9 1032.8R
BURNS HARBOR               25     230/ 13/ 18 1033.5R
$$

ILZ025>027-034>036-040-047-049-050-058-095>099-100100-
WEST-CENTRAL ILLINOIS

CITY           SKY/WX    TMP DP  RH WIND       PRES   REMARKS
QUINCY         CLOUDY    22  14  71 NW3       30.55F
GALESBURG*     CLOUDY    21  14  73 W3        30.55F
MACOMB*        CLEAR     18  13  83 NW5       30.58F WCI  11
JACKSONVILLE*  CLOUDY    23  15  72 CALM      30.57F
PITTSFIELD*    CLOUDY    25  15  68 CALM      30.57F
$$

ILZ028>032-037-038-041>044-048-051>054-059>061-100100-
CENTRAL ILLINOIS

CITY           SKY/WX    TMP DP  RH WIND       PRES   REMARKS
PONTIAC        CLOUDY    25  18  73 W9        30.56S WCI  16
BLOOMINGTON    FLURRIES  22  15  75 SW9       30.55S WCI  12
DECATUR        CLOUDY    23  13  65 W5        30.57S WCI  17
PEORIA         CLOUDY    23  12  62 NW6       30.57S WCI  16
6HR MIN TEMP:  23; 6HR MAX TEMP:  26;

LACON*         CLOUDY    23  16  73 W3        30.55S
LINCOLN*       CLOUDY    24  14  66 W3        30.58R
SPRINGFIELD    CLOUDY    25  16  68 CALM      30.58S
6HR MIN TEMP:  24; 6HR MAX TEMP:  25;

TAYLORVILLE    CLOUDY    23  15  71 CALM      30.57F
6HR MIN TEMP:  23; 6HR MAX TEMP:  24;

$$

ILZ033-039-045-046-055>057-062-063-100100-
EAST-CENTRAL ILLINOIS

CITY           SKY/WX    TMP DP  RH WIND       PRES   REMARKS
CHAMPAIGN      CLOUDY    24  14  65 W10       30.56S WCI  14
RANTOUL*       FLURRIES  26  17  69 W8        30.55S WCI  17
MATTOON        CLOUDY    23  15  71 NW7       30.55F WCI  15
PARIS*         CLOUDY    24  18  78 W9        30.57F WCI  14
$$

ILZ079-100>102-100100-
SOUTHWEST ILLINOIS

CITY           SKY/WX    TMP DP  RH WIND       PRES   REMARKS
ALTON          PTCLDY    23  14  68 CALM      30.58F
BELLEVILLE     CLEAR     24  13  63 N2        30.57S
CAHOKIA*       CLEAR     25  12  58 NE5       30.58S WCI  19
SPARTA*        CLEAR     26  13  58 CALM      30.58F
$$

ILZ064>066-069>071-074>076-080>082-084>086-088>090-092>094-100100-
SOUTH-CENTRAL ILLINOIS

CITY           SKY/WX    TMP DP  RH WIND       PRES   REMARKS
CARBONDALE     CLEAR     25  13  60 N3        30.58S
6HR MIN TEMP:  25; 6HR MAX TEMP:  32;

CAIRO*         CLEAR     26  17  68 CALM      30.58S
EFFINGHAM*     CLOUDY    25  19  77 W6        30.59S WCI  18
MARION         PTCLDY    27  16  63 N6        30.58S WCI  20
CENTRALIA*     CLEAR     25  17  71 CALM      30.58R
SALEM*         PTCLDY    25  16  69 NW3       30.58R
METROPOLIS*    CLEAR     28  14  54 CALM      30.58S
$$

ILZ067-068-072-073-078-083-087-091-100100-
SOUTHEAST ILLINOIS

CITY           SKY/WX    TMP DP  RH WIND       PRES   REMARKS
LAWRENCEVILLE  CLOUDY    26  17  68 N5        30.59R WCI  20
FLORA*         PTCLDY    27  16  62 W5        30.59S WCI  22
FAIRFIELD*     PTCLDY    25  15  67 CALM      30.58R
HARRISBURG*    CLEAR     26  16  65 CALM      30.59S
ROBINSON*      CLOUDY    24  17  73 NW3       30.59S
CARMI*         CLEAR     25  19  79 W5        30.58S WCI  19
$$

ABBREVIATIONS USED IN REMARKS
   TC - TEMPERATURE IN CELSIUS
  WCI - WIND CHILL INDEX
   HX - HEAT INDEX
  VSB - VISIBILITY
$$





USA.gov is the U.S. government's official web portal to all federal, state and local government web resources and services.